{"data":{"norad_id":65924,"intl_designator":"2025-225Q","name":"STARLINK-34994","alt_names":[],"object_type":"PAYLOAD","status":"ACTIVE","operator":null,"country":"US","launch_date":"2025-10-08","launch_site_code":"AFWTR","launch_vehicle":null,"mission":null,"orbit_class":"UNKNOWN","rcs_meters":null,"size_class":null,"mass_kg":null,"dimensions":null,"purposes":["comms"],"wikipedia_slug":null,"has_3d_model":false,"image_url":null,"decayed_at":null,"tle_current":{"epoch":"2026-05-25T01:23:43.639872Z","epoch_age_seconds":80543,"freshness":"FRESH","line1":"1 65924U 25225Q   26145.05814398  .00010882  00000+0  37892-3 0  9998","line2":"2 65924  53.1588 170.7271 0001311  70.9603 289.1540 15.30206110 36102","mean_motion":15.3020611,"eccentricity":0.0001311,"inclination_deg":53.1588,"raan_deg":170.7271,"arg_perigee_deg":70.9603,"mean_anomaly_deg":289.154,"bstar":0.00037892,"rev_number":3610,"period_min":94.104969950747,"perigee_km":474.29835405676,"apogee_km":476.09529818597,"semimajor_km":6853.3338261214,"source":"CELESTRAK","updated_at":"2026-05-25T13:38:20.989095Z"}}}